Temp
68 62 55 62 64 66 64 62 61 69 72 67 66 69 72 77 75 72 72 71 70 70 70 71 72 71 70 69 68 68 69 69 71 70 72 66 64 64 63 64 65 65 65 65
63 57 68 70 70 67 66 63 61 70 73 68 64 69 74 74 75 75 73 72 70 68 69 70 69 69 68 66 66 66 66 67 68 68 66 66 65 63 63 62 63 64 64 63
60 68 75 73 70 67 63 62 62 65 69 69 66 59 64 71 75 77 76 75 72 69 67 67 67 66 66 65 65 65 64 64 65 66 68 66 63 62 60 60 60 62 64 63
64 73 74 72 69 70 59 70 71 69 63 56 64 50 59 65 70 73 74 71 71 70 69 68 66 64 64 63 64 63 63 63 64 64 65 64 60 59 58 58 58 60 63 63
67 69 68 68 72 75 68 71 67 67 58 55 56 52 58 63 63 66 66 69 70 70 69 68 66 66 65 63 62 61 61 61 61 62 62 60 58 58 57 58 58 58 58 62
70 76 75 74 77 74 74 67 61 57 53 47 53 53 54 58 63 73 67 70 70 70 70 68 68 66 65 63 61 60 60 59 59 60 59 60 59 57 57 56 56 56 56 58
65 69 74 78 68 71 66 54 45 45 45 46 55 53 56 63 67 72 68 69 70 71 69 67 65 65 63 62 60 60 59 58 59 59 59 59 58 58 57 56 56 56 56 57
55 55 67 75 68 64 60 57 46 41 41 47 57 50 57 67 69 71 73 71 70 69 69 67 67 65 64 63 61 61 59 58 59 59 59 59 58 57 57 57 56 56 57 58
53 58 72 76 76 73 61 55 59 50 46 45 49 56 64 67 68 68 69 69 68 68 68 68 67 66 65 63 62 61 59 59 59 59 59 60 59 59 58 59 59 58 58 62
62 55 68 74 74 70 67 68 54 47 40 38 46 50 52 59 64 66 65 65 66 68 68 68 68 66 66 65 63 63 62 60 60 60 62 61 60 60 60 59 58 58 58 58
63 58 61 67 61 60 61 56 53 51 47 41 39 47 59 62 63 65 66 68 68 67 68 68 69 68 68 66 65 64 63 62 61 64 61 60 60 60 59 58 57 57 56 56
65 56 54 60 68 73 66 60 55 45 46 45 44 46 64 65 66 66 66 68 68 70 69 70 70 68 67 66 65 64 65 64 65 64 61 61 60 58 56 56 56 57 56 56
60 51 46 53 57 63 60 63 58 51 47 46 43 46 65 65 66 66 66 67 69 70 69 70 68 67 67 66 66 65 65 65 66 65 61 59 56 56 55 57 56 59 59 57
62 51 50 49 54 57 56 61 61 54 44 47 48 53 61 64 64 65 65 67 69 70 68 67 66 68 67 66 62 63 61 63 62 61 60 57 59 56 59 56 59 58 57 54
60 53 54 57 61 61 61 61 61 57 55 50 55 53 61 63 63 66 67 66 67 64 65 63 58 57 58 58 59 59 58 58 59 58 58 56 58 59 59 57 57 55 52 52
55 51 50 51 61 61 59 62 61 61 61 57 58 55 64 66 63 64 66 65 64 62 62 60 60 60 59 59 58 59 58 58 59 58 57 59 59 58 55 52 51 51 50 50
54 51 47 43 58 57 49 57 61 62 61 59 54 59 64 63 67 65 61 64 62 62 61 61 60 59 58 58 59 57 57 59 60 60 60 58 56 53 51 51 50 49 47 47
52 48 45 43 48 39 54 65 67 64 66 62 60 63 64 65 62 60 65 62 62 62 61 61 60 60 59 59 59 59 59 59 58 56 56 56 54 52 50 49 47 46 45 46
58 49 44 40 40 53 56 61 60 59 59 63 62 64 65 62 59 57 62 65 63 62 62 61 62 61 61 60 61 60 58 57 56 54 54 53 52 50 49 48 47 46 46 45
57 55 48 41 36 38 52 65 71 67 54 66 65 63 62 61 52 52 59 63 62 62 62 61 61 61 61 58 58 57 55 54 53 54 53 53 52 50 49 48 47 46 45 45
46 47 46 43 38 48 59 66 69 50 52 59 62 63 61 58 57 57 60 59 61 61 60 60 60 59 58 57 58 54 53 52 54 55 53 52 51 50 49 47 46 45 42 43
45 41 40 42 36 38 61 63 55 55 56 57 58 57 58 56 59 60 60 59 59 58 58 59 57 56 55 57 56 53 52 54 54 54 53 51 49 52 50 46 44 43 42 41
45 50 44 46 43 53 56 53 59 59 57 56 52 56 58 59 60 60 58 59 58 58 57 57 55 53 54 56 56 53 51 54 52 51 49 48 49 49 48 45 43 42 42 40
51 53 47 49 51 52 53 56 57 57 56 57 58 58 61 58 59 60 59 58 57 56 56 55 55 54 52 54 55 54 54 54 52 48 47 47 47 46 46 46 44 42 41 40
49 50 48 48 51 54 54 55 56 58 58 59 59 59 59 58 56 57 56 57 57 56 56 55 55 54 52 53 52 53 52 51 48 48 47 47 47 46 45 45 45 44 42 43
50 48 45 43 51 51 53 56 58 58 58 59 58 57 59 59 57 57 56 56 56 56 56 55 55 54 54 54 52 52 52 51 48 47 46 46 45 44 44 44 44 44 44 43
MSLP
1008.75 1009.76 1010.18 1009.99 1009.89 1009.80 1009.96 1009.94 1009.81 1008.96 1007.92 1008.94 1009.81 1010.26 1010.63 1011.00 1011.62 1012.05 1012.42 1012.96 1013.70 1014.57 1015.39 1015.72 1016.30 1016.74 1016.94 1017.27 1017.46 1017.65 1017.76 1017.93 1017.96 1018.16 1018.61 1019.13 1019.81 1020.02 1020.15 1020.11 1020.07 1020.11 1020.13 1020.13
1009.54 1009.74 1009.51 1009.47 1009.45 1009.65 1009.54 1009.44 1009.07 1008.32 1007.88 1008.38 1009.90 1010.11 1010.04 1010.24 1010.09 1010.43 1011.38 1012.47 1013.59 1014.77 1015.49 1015.71 1016.27 1016.81 1017.27 1017.76 1018.05 1018.18 1018.24 1018.25 1018.28 1018.32 1018.67 1019.22 1019.88 1020.29 1020.43 1020.54 1020.58 1020.52 1020.49 1020.50
1009.48 1008.57 1008.52 1008.97 1008.80 1009.18 1008.99 1008.71 1008.60 1008.34 1008.22 1008.70 1009.79 1010.78 1010.89 1010.64 1010.66 1010.74 1011.18 1012.04 1012.99 1013.76 1014.90 1015.72 1016.25 1016.66 1017.20 1017.79 1018.21 1018.51 1018.64 1018.61 1018.68 1018.84 1019.06 1019.74 1020.17 1020.65 1021.05 1021.19 1021.13 1020.95 1020.68 1020.67
1009.02 1007.85 1008.24 1008.03 1008.02 1008.17 1008.12 1007.75 1008.14 1008.28 1008.98 1009.68 1009.71 1011.30 1010.91 1010.43 1010.51 1010.63 1011.36 1012.33 1012.98 1013.97 1014.92 1015.42 1016.04 1016.90 1017.33 1017.73 1018.13 1018.60 1018.90 1018.97 1019.02 1019.19 1019.46 1019.91 1020.42 1020.87 1021.23 1021.30 1021.36 1021.21 1020.96 1020.91
1008.21 1007.84 1007.54 1007.11 1006.61 1006.65 1007.12 1007.31 1007.98 1008.54 1009.70 1010.34 1010.83 1011.28 1010.14 1009.84 1010.60 1010.59 1011.20 1011.83 1012.67 1013.27 1014.05 1015.13 1015.73 1016.35 1016.94 1017.58 1018.18 1018.70 1019.16 1019.40 1019.41 1019.46 1019.65 1020.15 1020.71 1020.87 1021.20 1021.55 1021.70 1021.79 1021.62 1021.33
1007.96 1007.00 1006.68 1005.91 1005.67 1006.01 1006.82 1007.93 1009.04 1009.95 1010.96 1011.98 1011.46 1011.36 1010.69 1009.88 1009.43 1009.20 1010.41 1011.31 1012.22 1013.25 1014.20 1015.08 1015.72 1016.36 1017.19 1017.71 1018.25 1018.73 1019.36 1019.86 1019.89 1019.94 1020.16 1020.37 1020.96 1021.40 1021.67 1022.05 1022.24 1022.21 1022.08 1021.78
1008.09 1006.98 1005.89 1005.39 1005.92 1006.42 1007.36 1009.28 1011.09 1012.32 1012.72 1012.56 1011.51 1011.39 1010.42 1009.10 1008.09 1007.88 1008.79 1010.56 1011.90 1012.81 1013.92 1014.90 1015.58 1016.48 1017.21 1017.72 1018.17 1018.77 1019.53 1020.15 1020.29 1020.38 1020.56 1020.75 1021.18 1021.50 1021.96 1022.19 1022.36 1022.43 1022.26 1021.97
1009.00 1007.68 1006.17 1005.56 1005.95 1006.79 1007.89 1009.35 1011.31 1012.66 1013.66 1013.05 1011.62 1010.90 1010.24 1009.55 1008.55 1007.18 1008.38 1009.70 1011.59 1012.98 1013.98 1014.67 1015.34 1016.08 1016.84 1017.49 1017.93 1018.54 1019.39 1020.06 1020.29 1020.51 1020.91 1021.27 1021.55 1021.61 1021.89 1022.08 1022.18 1022.20 1022.06 1021.91
1008.68 1007.76 1006.24 1005.72 1005.63 1006.25 1007.94 1009.38 1010.46 1012.09 1013.56 1013.83 1012.53 1011.08 1010.27 1009.69 1009.20 1008.94 1009.67 1010.64 1011.59 1012.50 1013.38 1014.12 1015.02 1015.82 1016.50 1017.22 1017.69 1018.13 1019.00 1019.84 1020.26 1020.64 1020.99 1021.12 1021.26 1021.44 1021.71 1021.79 1021.92 1022.04 1022.01 1021.73
1008.03 1008.19 1006.73 1005.89 1005.48 1006.16 1006.98 1008.55 1010.58 1012.55 1013.99 1014.33 1013.24 1011.93 1011.03 1010.44 1010.00 1010.09 1010.64 1011.28 1012.13 1012.44 1013.18 1013.93 1014.53 1015.11 1015.79 1016.50 1017.26 1018.04 1018.53 1019.32 1019.83 1020.21 1020.50 1020.75 1020.96 1021.18 1021.41 1021.66 1021.94 1022.13 1022.23 1022.13
1007.38 1008.04 1007.50 1006.71 1006.82 1007.00 1007.64 1008.80 1010.66 1012.42 1013.62 1014.33 1013.91 1012.43 1010.40 1010.02 1009.92 1010.13 1010.31 1010.57 1011.11 1011.77 1012.41 1013.04 1013.71 1014.33 1014.89 1015.91 1016.78 1017.45 1017.97 1018.54 1019.21 1019.60 1020.12 1020.58 1020.95 1021.26 1021.66 1021.95 1022.23 1022.45 1022.38 1022.40
1006.93 1007.83 1008.28 1007.63 1006.88 1006.83 1007.67 1008.90 1010.00 1012.51 1013.48 1013.85 1013.36 1011.77 1009.88 1009.52 1009.53 1009.40 1009.62 1009.86 1010.25 1010.52 1011.30 1012.17 1012.92 1013.78 1014.85 1015.62 1016.40 1016.96 1017.58 1017.95 1018.30 1019.42 1019.87 1020.35 1020.81 1021.58 1022.05 1022.16 1022.23 1022.37 1022.42 1022.38
1007.34 1008.37 1008.76 1008.41 1008.24 1007.55 1007.71 1008.41 1009.49 1011.25 1012.36 1012.99 1013.07 1011.68 1009.75 1009.34 1009.15 1009.12 1009.30 1009.37 1009.60 1009.99 1010.81 1011.67 1012.60 1013.47 1014.15 1014.91 1015.82 1016.72 1017.17 1017.49 1018.14 1018.64 1019.83 1020.88 1021.02 1021.74 1022.31 1022.25 1022.55 1022.15 1022.45 1022.58
1007.64 1009.04 1009.41 1008.97 1008.29 1008.02 1008.14 1008.22 1008.92 1010.47 1011.92 1012.07 1011.79 1010.90 1010.05 1009.31 1008.97 1008.76 1008.92 1008.64 1009.00 1009.57 1010.63 1011.65 1012.69 1013.21 1014.24 1015.02 1015.78 1016.52 1017.27 1017.52 1018.08 1018.81 1019.86 1020.48 1021.73 1021.83 1021.87 1022.40 1022.34 1022.46 1022.56 1022.59
1008.17 1009.36 1009.40 1009.08 1008.61 1008.21 1007.93 1008.00 1008.51 1009.32 1009.90 1010.51 1010.22 1009.92 1008.91 1007.97 1007.89 1007.94 1007.84 1008.37 1009.19 1010.18 1010.97 1011.87 1012.75 1013.66 1014.45 1015.39 1016.41 1017.07 1017.87 1018.35 1018.90 1019.71 1020.40 1020.97 1021.62 1021.95 1022.23 1022.64 1022.69 1022.93 1022.98 1022.98
1009.15 1009.77 1010.06 1009.95 1009.18 1008.60 1007.95 1007.67 1008.01 1008.25 1008.52 1008.52 1008.61 1008.53 1007.52 1006.97 1007.33 1007.61 1008.05 1008.93 1009.47 1010.30 1011.09 1012.09 1013.09 1013.92 1014.87 1015.82 1016.79 1017.45 1018.21 1018.85 1019.19 1019.94 1020.62 1021.37 1021.68 1022.07 1022.49 1022.95 1023.17 1023.17 1023.21 1023.28
1009.82 1010.28 1010.95 1010.59 1009.81 1008.98 1007.94 1007.41 1007.21 1007.27 1007.19 1007.49 1007.74 1007.40 1006.90 1006.99 1006.65 1007.18 1007.94 1008.82 1009.48 1010.09 1010.89 1011.78 1012.71 1013.74 1014.80 1015.76 1016.50 1017.59 1018.26 1018.72 1019.36 1019.90 1020.42 1021.20 1021.88 1022.58 1023.01 1023.10 1023.22 1023.37 1023.48 1023.50
1010.04 1010.91 1011.29 1011.34 1010.61 1009.18 1007.31 1006.37 1006.32 1006.46 1006.23 1006.63 1006.85 1006.75 1006.65 1006.60 1006.85 1007.22 1007.90 1008.62 1009.74 1010.50 1011.45 1012.29 1013.06 1014.03 1015.00 1015.92 1016.88 1017.57 1018.38 1019.13 1019.61 1020.27 1020.93 1021.60 1022.23 1022.85 1023.21 1023.36 1023.42 1023.49 1023.53 1023.59
1009.93 1010.83 1011.74 1011.78 1010.90 1008.82 1007.53 1006.36 1006.29 1006.37 1005.95 1006.36 1006.52 1006.55 1006.59 1007.13 1007.83 1008.87 1008.95 1008.56 1009.40 1010.37 1011.48 1012.20 1013.01 1013.83 1014.86 1015.86 1016.67 1017.50 1018.56 1019.38 1020.01 1020.69 1021.34 1021.94 1022.43 1022.95 1023.19 1023.29 1023.42 1023.48 1023.54 1023.58
1009.75 1010.24 1011.45 1011.83 1011.06 1009.01 1007.17 1006.47 1006.22 1006.26 1004.69 1006.21 1006.28 1006.56 1007.01 1007.21 1008.42 1009.27 1009.40 1009.37 1010.37 1011.08 1011.62 1012.36 1013.34 1014.28 1015.05 1016.04 1016.72 1017.62 1018.56 1019.46 1020.29 1020.85 1021.45 1021.99 1022.38 1022.67 1023.05 1023.29 1023.45 1023.53 1023.60 1023.70
1010.44 1010.90 1011.22 1011.14 1010.28 1008.02 1006.64 1006.01 1006.15 1006.92 1006.50 1006.94 1006.99 1006.53 1007.01 1007.67 1007.45 1007.87 1009.37 1010.22 1010.26 1010.95 1011.92 1012.78 1013.55 1014.38 1015.33 1016.23 1016.72 1017.74 1018.68 1019.57 1020.23 1020.77 1021.30 1021.96 1022.38 1022.61 1022.96 1023.20 1023.35 1023.65 1023.91 1023.91
1010.83 1011.16 1011.19 1010.92 1010.05 1008.31 1006.89 1006.49 1006.63 1006.92 1007.06 1007.36 1007.60 1007.27 1007.48 1007.15 1007.58 1008.09 1009.27 1010.23 1010.92 1011.63 1012.55 1013.34 1014.22 1015.21 1015.98 1016.67 1017.04 1018.19 1019.16 1019.80 1020.28 1020.84 1021.23 1021.79 1022.22 1022.59 1022.92 1023.14 1023.55 1023.81 1023.93 1024.26
1010.19 1009.79 1010.38 1010.34 1009.08 1008.35 1008.08 1007.72 1007.30 1007.25 1007.56 1008.19 1007.95 1007.87 1007.69 1008.08 1008.41 1008.63 1009.44 1010.06 1010.93 1011.80 1012.99 1014.23 1015.07 1016.03 1016.67 1017.17 1017.50 1018.27 1019.13 1019.57 1020.30 1020.84 1021.19 1021.78 1022.20 1022.42 1022.85 1023.37 1023.82 1024.04 1024.09 1024.44
1009.69 1009.41 1009.66 1009.61 1008.86 1008.61 1008.41 1007.98 1007.72 1007.84 1008.46 1008.78 1008.27 1008.10 1007.84 1008.76 1009.86 1010.29 1010.80 1010.64 1011.23 1012.22 1013.05 1014.16 1015.13 1016.09 1016.87 1017.21 1017.37 1018.03 1019.02 1019.69 1020.60 1021.24 1021.42 1021.85 1022.25 1022.49 1022.75 1023.13 1023.45 1023.85 1024.18 1024.33
1010.08 1009.68 1009.56 1009.31 1008.82 1008.46 1008.30 1007.97 1007.95 1008.14 1008.47 1008.51 1008.70 1008.20 1008.28 1008.74 1009.95 1010.77 1012.41 1012.56 1011.97 1012.70 1013.15 1013.87 1014.73 1015.81 1016.59 1017.20 1017.80 1018.39 1019.10 1019.63 1020.35 1021.22 1021.91 1022.09 1022.13 1022.36 1022.73 1022.88 1023.10 1023.45 1023.50 1023.61
1009.82 1009.58 1009.45 1008.94 1008.74 1008.78 1008.33 1007.95 1007.99 1008.02 1008.00 1008.20 1008.30 1008.65 1008.51 1008.63 1009.46 1010.00 1011.83 1012.86 1012.98 1013.34 1013.71 1014.41 1015.16 1015.55 1016.36 1017.27 1017.84 1018.58 1018.89 1019.49 1020.25 1021.17 1022.01 1022.19 1022.27 1022.49 1022.62 1022.83 1022.92 1022.79 1022.76 1023.01
Wind_Speed
3 4 5 9 6 6 3 4 4 9 7 9 13 16 24 21 15 14 14 12 11 10 8 10 10 8 9 8 8 8 6 3 4 4 5 4 4 3 4 5 7 7 6 7
6 5 11 7 8 5 6 6 7 7 3 7 9 18 20 17 21 22 20 16 15 10 12 12 10 8 7 7 7 7 6 4 4 4 3 4 4 3 4 3 6 6 6 6
7 12 1 6 10 4 5 6 4 5 3 6 8 2 5 7 10 16 18 19 19 21 17 13 12 11 9 8 7 6 5 5 4 6 7 6 5 4 3 3 3 3 6 6
7 10 9 12 10 7 3 5 4 3 5 4 4 4 6 10 15 18 16 17 19 17 13 13 13 9 10 8 8 7 5 5 4 5 7 8 5 4 3 3 2 4 5 6
13 7 7 6 7 6 8 0 1 4 4 4 1 5 10 6 9 12 12 20 19 20 19 17 15 13 10 9 8 7 7 6 4 6 7 6 5 3 2 4 6 4 3 3
10 6 6 9 5 3 3 6 9 6 4 2 5 5 8 5 9 17 13 21 21 18 15 14 12 12 10 8 8 8 8 4 6 6 6 8 8 6 5 4 4 2 1 2
8 7 5 3 3 6 8 8 4 5 5 6 5 3 10 9 6 13 25 22 20 18 16 15 16 14 12 11 9 8 8 6 5 7 7 7 7 7 8 5 4 3 0 2
2 9 2 2 4 9 4 9 8 6 4 5 7 3 6 6 10 8 16 22 18 16 15 16 16 15 14 12 11 10 9 7 6 6 6 5 5 4 4 5 4 3 2 1
6 7 4 6 7 11 5 2 6 7 2 4 4 1 4 6 9 12 14 15 18 18 16 17 16 14 14 12 12 13 10 8 7 7 5 5 7 7 6 6 4 2 1 1
8 3 2 4 5 5 9 6 3 5 3 3 5 4 6 3 6 9 12 13 11 13 14 15 16 16 14 14 12 11 12 11 9 9 7 6 7 7 6 5 5 5 4 4
7 7 8 2 1 5 2 1 6 6 6 7 2 7 7 10 8 10 11 17 19 17 17 17 17 17 16 14 14 14 14 14 11 10 7 7 6 6 5 6 6 6 5 6
8 7 6 9 5 6 6 6 5 7 7 3 5 8 5 9 12 11 10 10 16 21 20 18 18 17 16 15 15 15 13 12 13 8 6 7 5 6 6 6 6 5 6 5
0 2 1 9 7 6 4 5 5 4 5 7 7 8 5 6 8 10 10 10 14 18 18 16 14 16 17 16 14 13 12 13 10 9 7 7 9 8 6 5 4 5 4 5
6 4 7 10 10 5 4 3 4 7 5 5 7 6 7 8 9 8 10 11 13 15 15 14 12 13 13 12 10 10 6 7 8 10 11 11 7 6 8 3 6 5 4 5
6 6 5 5 5 3 5 6 6 5 7 7 6 8 10 12 12 14 13 9 9 11 13 12 11 9 9 11 10 10 9 10 11 12 11 9 7 6 5 5 6 5 5 4
3 2 1 2 5 7 11 8 7 8 5 5 7 9 10 8 4 6 11 9 13 13 14 14 14 14 14 13 11 11 11 10 12 11 11 8 6 6 7 6 6 6 6 5
2 4 3 5 5 7 9 8 10 7 7 7 8 9 6 5 9 7 10 16 16 16 17 17 17 15 13 12 13 11 11 10 10 11 9 8 9 8 6 6 6 5 4 3
5 4 4 5 1 11 4 8 10 15 16 5 3 7 8 7 1 4 14 18 17 17 16 16 14 14 13 12 12 13 12 10 9 9 10 10 8 7 6 5 5 3 2 3
6 5 2 5 7 10 2 2 2 3 13 3 7 7 6 6 6 7 5 16 18 18 16 16 16 17 17 16 14 14 12 10 10 10 9 8 8 7 6 5 4 2 3 3
6 4 6 4 5 12 4 10 9 4 20 5 6 8 8 6 5 5 9 17 16 16 16 17 16 16 15 12 13 14 12 12 11 10 8 7 6 7 6 4 3 2 3 3
2 2 8 6 7 6 3 8 8 10 11 5 5 5 7 6 6 9 11 9 14 17 17 15 15 14 12 11 14 13 12 12 10 10 9 7 6 7 6 4 2 4 4 5
6 4 4 1 4 9 3 2 4 1 1 2 5 3 5 3 13 18 16 16 18 19 17 16 15 12 9 11 14 13 13 10 10 9 8 7 7 4 4 6 4 4 5 6
9 9 6 9 7 4 6 1 1 2 4 2 1 4 6 11 13 20 19 21 20 20 16 13 12 10 8 10 13 14 11 12 9 7 8 7 6 6 5 5 4 3 4 4
3 2 3 1 2 0 1 4 4 4 5 4 1 4 8 10 7 11 12 16 16 16 16 14 14 13 11 10 11 14 11 10 9 7 7 6 6 6 4 3 3 4 3 3
5 3 1 5 3 0 0 1 2 1 4 6 5 4 10 14 10 10 7 6 14 15 15 15 15 13 13 11 11 10 10 9 8 7 5 6 5 6 4 4 4 4 5 5
4 6 4 6 5 5 7 5 6 5 4 4 6 5 9 15 18 17 14 10 11 12 11 11 12 14 13 12 11 9 9 10 8 6 4 4 4 4 3 3 2 6 8 8
Wind_Direction
303 66 250 254 215 218 202 231 249 269 250 124 174 157 182 180 159 161 167 160 146 140 137 120 112 101 84 61 60 52 84 71 114 104 122 95 89 82 63 64 68 63 56 47
5 255 239 248 283 265 265 265 277 277 37 85 161 175 182 175 181 178 173 165 154 138 147 139 131 116 110 108 90 67 70 76 81 92 93 105 123 89 95 71 63 67 66 56
178 243 211 214 260 256 263 209 204 210 356 38 117 22 185 226 198 191 185 172 163 161 156 155 147 141 135 127 118 93 74 88 78 95 99 96 73 55 64 51 70 63 82 73
227 261 237 256 257 163 226 214 197 105 109 201 115 252 228 212 203 203 181 172 173 163 160 158 150 144 142 142 123 109 83 78 76 115 115 133 140 140 181 148 125 83 67 74
262 291 300 216 202 171 214 162 92 78 116 103 34 98 260 148 205 216 183 177 175 172 166 162 157 157 147 137 128 117 104 75 68 91 120 123 115 103 107 107 99 72 29 69
255 250 211 220 231 187 82 71 35 47 92 43 232 123 290 208 203 217 173 178 176 169 162 158 153 142 141 135 129 124 117 91 85 93 102 117 122 113 96 110 107 89 9 13
335 295 280 170 109 28 77 58 4 1 13 230 316 83 237 303 223 197 172 175 173 168 159 159 153 153 153 149 142 129 124 115 108 104 107 109 112 113 116 129 144 152 14 12
208 320 28 292 203 172 186 144 153 193 203 250 319 296 283 317 303 99 158 161 158 159 165 165 164 160 157 156 151 132 136 134 133 121 111 109 120 110 108 125 136 131 122 168
173 253 277 277 214 142 176 124 186 109 78 80 264 206 351 350 25 70 119 143 162 168 170 170 164 160 162 166 161 152 145 149 151 144 128 118 138 128 125 117 118 109 59 27
224 277 250 340 45 47 136 159 62 12 166 220 282 284 235 235 143 123 139 154 169 171 169 170 169 170 173 168 162 155 155 159 168 166 164 161 159 150 150 123 104 95 65 47
169 151 262 55 65 189 42 99 68 117 135 167 200 266 216 205 190 172 175 178 177 177 178 178 175 178 173 165 163 170 166 165 170 174 169 160 163 160 109 99 88 81 69 49
197 155 213 193 190 154 161 230 135 128 261 216 158 265 276 196 200 191 201 185 183 181 180 180 178 173 171 169 170 172 175 169 170 167 160 174 139 98 98 100 104 87 80 63
5 344 95 326 347 354 164 186 163 113 75 202 151 254 238 240 208 214 197 200 186 184 180 177 168 176 174 171 167 173 171 171 174 153 125 95 113 117 117 117 100 109 77 62
82 135 164 204 210 173 173 221 157 128 119 217 205 232 280 259 237 215 222 206 190 185 172 170 166 174 166 161 153 150 132 132 124 116 112 113 114 118 109 109 89 70 63 59
122 193 195 212 235 263 226 211 232 194 206 171 249 215 238 230 215 213 210 198 174 124 143 152 135 125 119 114 110 103 93 92 101 103 106 116 129 113 90 75 78 66 54 42
4 274 187 263 257 255 263 253 221 233 245 241 237 256 245 274 264 196 209 132 136 138 137 130 126 127 121 124 119 112 113 115 117 126 132 150 119 94 86 95 95 77 46 30
147 132 87 255 260 295 281 218 235 250 226 199 246 238 209 226 169 215 138 151 151 147 145 141 136 132 130 130 130 132 136 129 133 133 134 113 112 113 124 111 86 70 60 19
146 119 143 231 213 256 250 207 215 237 257 220 240 217 208 204 219 133 158 143 140 138 136 136 133 132 132 130 136 139 140 141 130 119 116 123 119 119 112 103 91 71 45 34
185 131 226 182 213 265 302 185 123 289 280 221 231 231 196 127 82 25 154 144 144 140 139 141 144 142 142 144 142 134 133 130 118 117 122 129 128 126 122 95 79 63 50 20
152 152 161 138 204 248 161 224 237 180 270 249 216 207 181 163 132 214 176 146 139 140 144 141 140 139 136 140 135 131 128 120 125 129 123 125 126 125 117 112 99 61 51 22
345 316 218 220 251 257 228 201 164 203 256 303 296 193 164 211 202 149 144 144 138 140 135 128 129 136 133 135 129 123 125 130 134 128 127 128 143 126 128 108 86 77 60 55
192 182 217 190 235 300 216 83 208 205 232 27 332 328 315 116 136 142 147 143 137 134 130 125 121 121 121 130 123 127 132 142 141 140 131 125 137 137 119 113 115 91 78 59
227 202 200 184 214 266 14 61 303 118 90 23 144 341 130 147 155 153 152 148 144 138 131 127 119 111 117 128 131 132 144 141 137 133 123 127 132 128 128 127 128 110 95 88
204 50 189 114 229 167 321 92 94 93 135 181 115 109 108 109 118 136 149 145 138 137 134 131 130 136 143 136 127 131 138 135 133 136 141 146 144 136 137 128 161 149 147 150
221 40 166 262 287 9 20 126 154 324 190 172 186 142 132 122 124 114 114 161 143 150 148 150 148 146 141 134 127 131 137 134 136 145 150 159 169 154 176 208 184 185 213 177
175 204 205 230 199 181 251 223 209 215 222 215 181 151 155 145 151 152 167 171 162 157 153 146 147 142 143 139 139 142 142 143 142 149 156 180 168 168 188 194 269 229 221 200